PBO Station Position Time Series. Reference Frame : NAM14
Format Version,1.1.1
4-character ID,CRRS
Station name,CRRS_SCGN_CS1998
Begin Date, 1999-01-15
End Date, 2023-06-26
Release Date, 2023-06-27
Reference position, 33.0698075757 North Latitude, -115.7350416515 East Longitude, -81.91257 meters elevation,
Date, North (mm), East (mm), Vertical (mm), North Std. Deviation (mm), East Std. Deviation (mm),              Vertical Std. Deviation (mm), Quality,
1999-01-15,0.00, 0.00, 0.00, 2.18, 1.94, 8.66, repro,
1999-01-16,-0.70, 1.39, -1.47, 2.06, 1.81, 8.13, repro,
1999-01-17,-1.77, 1.44, 1.49, 2.10, 1.88, 8.39, repro,
1999-01-18,-1.32, 0.97, 1.26, 2.03, 1.78, 7.80, repro,
1999-01-19,-0.39, 0.88, -4.96, 2.05, 1.84, 8.03, repro,
1999-01-20,-2.02, 0.11, 4.24, 2.19, 1.84, 8.53, repro,
1999-01-21,-4.33, -0.01, 7.73, 2.24, 1.94, 8.83, repro,
1999-01-22,-1.46, 1.06, -1.16, 2.08, 1.83, 8.19, repro,
1999-01-23,-0.55, 0.33, 5.72, 2.23, 2.06, 9.08, repro,
1999-01-24,-0.92, 1.28, -6.64, 2.26, 1.97, 9.14, repro,
1999-01-25,0.21, 1.19, -3.41, 2.25, 1.96, 9.17, repro,
1999-01-26,-2.23, 0.90, -6.47, 2.43, 2.02, 10.18, repro,
1999-01-27,-0.59, 1.94, -6.03, 2.20, 1.82, 8.53, repro,
1999-01-28,0.17, 0.64, -1.32, 2.19, 1.95, 8.80, repro,
1999-01-29,-0.63, 1.87, 6.88, 2.27, 1.96, 9.22, repro,
1999-01-30,-0.78, 0.57, 6.18, 2.35, 2.06, 9.52, repro,
1999-01-31,1.54, -0.89, 13.28, 2.25, 2.00, 9.15, repro,
1999-02-01,-0.16, -0.15, 7.48, 2.08, 1.81, 8.27, repro,
1999-02-02,1.09, 1.61, 4.47, 2.22, 1.85, 8.87, repro,
1999-02-03,1.08, -0.41, 6.46, 2.33, 1.96, 9.86, repro,
1999-02-04,-0.86, 2.83, 16.94, 2.20, 1.93, 9.02, repro,
1999-02-05,0.11, -0.51, 6.14, 2.12, 1.85, 8.52, repro,
1999-02-06,-0.24, -0.40, 7.99, 2.26, 2.00, 9.29, repro,
1999-02-07,-0.74, 0.26, 7.73, 2.32, 1.97, 9.17, repro,
1999-02-08,-1.24, 0.60, 9.07, 2.03, 1.83, 8.12, repro,
1999-02-09,-2.71, 2.05, 14.01, 2.38, 2.02, 9.41, repro,
1999-02-10,-1.33, -0.37, 4.50, 2.14, 1.88, 8.63, repro,
1999-02-11,1.14, 1.36, -4.95, 2.24, 1.91, 8.88, repro,
1999-02-12,-0.15, 2.22, -4.36, 2.43, 2.01, 9.62, repro,
1999-02-13,-0.78, 1.42, -10.57, 2.07, 1.81, 8.06, repro,
1999-02-14,-1.43, 0.75, -8.42, 2.19, 1.89, 8.72, repro,
1999-02-15,-0.63, 0.22, 1.35, 2.22, 1.89, 8.85, repro,
1999-02-16,-1.58, 0.46, 1.07, 2.11, 1.86, 8.52, repro,
1999-02-17,0.04, 0.52, 10.43, 2.15, 1.82, 8.42, repro,
1999-02-18,-3.19, -0.47, 15.69, 2.12, 1.89, 8.40, repro,
1999-02-19,-1.08, 0.53, 4.77, 2.18, 1.88, 8.68, repro,
1999-02-20,-1.00, 1.37, 4.40, 2.20, 1.92, 8.91, repro,
1999-02-21,-1.90, 1.51, 0.02, 2.08, 1.81, 8.05, repro,
1999-02-22,0.44, 0.13, -1.91, 2.13, 1.82, 8.33, repro,
1999-02-23,-0.81, 1.03, -4.30, 2.01, 1.79, 7.78, repro,
1999-02-24,-1.56, 1.42, -4.50, 2.01, 1.78, 7.81, repro,
1999-02-25,-0.91, 0.54, 1.89, 2.02, 1.78, 7.82, repro,
1999-02-26,0.03, 3.38, -1.60, 2.88, 2.49, 11.21, repro,
1999-02-27,-0.52, 1.20, 1.49, 2.12, 1.86, 8.28, repro,
1999-02-28,-0.55, 1.12, 4.93, 2.00, 1.79, 7.84, repro,
1999-03-01,-0.84, 1.40, -3.54, 2.09, 1.81, 8.15, repro,
1999-03-02,-1.19, 1.85, -7.34, 2.12, 1.81, 8.24, repro,
1999-03-03,-2.57, 3.63, -6.90, 2.04, 1.79, 7.91, repro,
1999-03-04,-0.61, -1.60, -8.28, 2.15, 1.84, 8.55, repro,
1999-03-05,-1.75, 1.15, -6.27, 2.02, 1.77, 7.81, repro,
1999-03-06,-3.35, 1.18, -8.15, 2.05, 1.86, 8.04, repro,
1999-03-07,-3.58, 1.68, -8.12, 2.04, 1.82, 8.00, repro,
1999-03-08,-1.30, 1.94, -8.54, 2.03, 1.79, 7.88, repro,
1999-03-09,0.11, 0.64, -5.20, 2.03, 1.80, 7.93, repro,
1999-03-10,-2.11, 0.33, -4.66, 2.06, 1.83, 7.98, repro,
1999-03-11,-2.70, 0.82, 1.92, 1.99, 1.75, 7.70, repro,
1999-03-12,-1.81, 1.26, -6.44, 2.08, 1.78, 7.97, repro,
1999-03-13,-1.16, 1.43, -5.55, 2.10, 1.91, 8.15, repro,
1999-03-14,-0.98, 0.98, -4.73, 2.10, 1.80, 7.97, repro,
1999-03-15,-0.66, 1.82, 3.97, 2.16, 1.93, 8.48, repro,
1999-03-16,-0.26, 2.06, -2.25, 2.16, 1.91, 8.42, repro,
1999-03-17,-1.41, 1.36, -7.75, 2.22, 2.04, 8.88, repro,
1999-03-18,-1.82, 0.25, -7.06, 2.43, 2.26, 9.79, repro,
1999-03-19,-1.99, 1.77, -7.93, 2.42, 2.23, 9.93, repro,
1999-03-20,-0.91, 0.17, -2.98, 2.22, 2.03, 8.93, repro,
1999-03-21,-2.71, -0.45, -3.16, 2.99, 2.71, 12.04, repro,
1999-03-22,-1.69, 1.87, -2.58, 2.44, 2.21, 9.93, repro,
1999-03-23,0.22, 0.75, -14.86, 2.14, 1.93, 8.52, repro,
1999-03-24,-1.68, 0.78, -4.75, 2.36, 2.16, 9.64, repro,
1999-03-25,-1.11, 0.76, -5.23, 2.45, 2.26, 10.15, repro,
1999-03-26,-2.14, 1.38, -0.54, 2.33, 2.22, 9.36, repro,
1999-03-27,-1.16, 1.25, -6.28, 2.08, 1.89, 8.21, repro,
1999-03-28,-0.80, 0.43, -4.24, 2.30, 2.02, 9.29, repro,
1999-03-29,-1.24, 0.38, -4.16, 2.36, 2.22, 9.58, repro,
1999-03-30,-0.98, 1.71, -1.79, 2.30, 2.09, 9.43, repro,
1999-03-31,-3.74, -0.50, -4.24, 2.26, 1.93, 8.91, repro,
1999-04-01,-3.49, 1.83, 3.30, 2.29, 2.00, 9.01, repro,
1999-04-02,-1.84, 0.18, -5.74, 2.22, 1.85, 8.49, repro,
1999-04-03,-2.89, 1.63, 1.41, 2.07, 1.79, 7.94, repro,
1999-04-04,-3.69, 0.46, -3.37, 2.12, 1.91, 8.34, repro,
1999-04-05,-1.93, 2.28, -5.85, 2.28, 1.99, 9.01, repro,
1999-04-06,-3.01, 1.27, 0.10, 2.13, 1.86, 8.38, repro,
1999-04-07,-1.25, 0.88, -6.75, 2.03, 1.78, 7.91, repro,
1999-04-08,-1.08, 0.11, 0.36, 2.01, 1.79, 7.91, repro,
1999-04-09,0.11, 1.93, 3.08, 2.07, 1.86, 8.13, repro,
1999-04-10,-1.47, 1.35, -1.70, 2.00, 1.78, 7.88, repro,
1999-04-11,-0.15, 1.36, 0.68, 2.06, 1.84, 7.97, repro,
1999-04-12,0.19, 0.07, -2.52, 2.01, 1.76, 7.85, repro,
1999-04-13,0.47, 0.88, 0.93, 2.02, 1.77, 7.92, repro,
1999-04-14,-0.67, 0.53, -6.17, 1.99, 1.78, 7.89, repro,
1999-04-15,-1.48, 1.25, -5.63, 2.01, 1.78, 7.90, repro,
1999-04-16,-0.90, 1.56, -4.46, 2.01, 1.83, 8.00, repro,
1999-04-17,-1.31, 0.55, -0.84, 2.06, 1.78, 8.11, repro,
1999-04-18,-0.52, 1.23, -1.25, 1.99, 1.76, 7.90, repro,
1999-04-19,-0.41, 0.81, 3.40, 1.99, 1.76, 7.87, repro,
1999-04-20,-0.76, -0.47, 10.98, 2.04, 1.79, 8.12, repro,
1999-04-21,0.65, 0.63, 6.96, 2.05, 1.78, 8.13, repro,
1999-04-22,-2.44, 0.67, 4.51, 2.04, 1.78, 8.06, repro,
1999-04-23,0.26, 1.13, 10.86, 2.06, 1.81, 8.09, repro,
1999-04-24,-0.31, 0.48, 8.53, 2.02, 1.76, 7.85, repro,
1999-04-25,-0.57, 1.24, 6.65, 2.05, 1.81, 8.08, repro,
1999-04-26,-0.37, 1.89, 2.51, 1.99, 1.78, 7.87, repro,
1999-04-27,-0.48, -0.60, 11.03, 2.02, 1.79, 7.90, repro,
1999-04-28,-1.46, 0.20, 9.98, 2.04, 1.86, 8.08, repro,
1999-04-29,0.37, -1.36, -1.04, 2.04, 1.85, 8.08, repro,
1999-04-30,-0.27, 0.77, 9.14, 2.07, 1.90, 8.21, repro,
1999-05-01,-0.98, 0.57, 3.99, 2.07, 1.89, 8.22, repro,
1999-05-02,-1.86, 0.99, 1.89, 2.42, 2.25, 9.64, repro,
1999-05-03,0.33, -0.11, 15.04, 2.05, 1.89, 8.17, repro,
1999-05-04,-0.88, 0.82, 14.59, 2.08, 1.98, 8.38, repro,
1999-05-05,-1.29, 1.24, 16.31, 2.10, 1.93, 8.27, repro,
1999-05-06,-0.57, 0.67, 3.07, 2.04, 1.84, 8.00, repro,
1999-05-07,-1.17, 0.11, 0.26, 2.00, 1.77, 7.90, repro,
1999-05-08,-1.30, 0.56, 12.25, 2.12, 1.87, 8.35, repro,
1999-05-09,-0.82, 0.36, 2.73, 2.08, 1.87, 8.25, repro,
1999-05-10,-1.06, 0.95, 7.29, 2.02, 1.84, 8.00, repro,
1999-05-11,-1.66, 0.54, 1.36, 2.03, 1.84, 8.07, repro,
1999-05-12,-1.19, 0.76, -0.77, 2.20, 2.00, 8.63, repro,
1999-05-13,-1.48, 2.02, 9.54, 2.02, 1.84, 8.03, repro,
1999-05-14,-2.82, 1.59, 5.66, 2.11, 1.88, 8.26, repro,
1999-05-15,-0.32, 0.60, 3.34, 2.02, 1.85, 8.07, repro,
1999-05-16,-2.04, 0.96, 5.86, 2.26, 2.02, 9.12, repro,
1999-05-17,0.25, 0.87, 4.02, 2.11, 1.97, 8.38, repro,
1999-05-18,-1.17, -0.05, 3.02, 2.28, 2.02, 9.26, repro,
1999-05-19,-0.46, 0.60, 14.66, 2.07, 1.90, 8.36, repro,
1999-05-20,-0.56, 0.86, 8.26, 2.04, 1.85, 8.12, repro,
1999-05-21,-0.89, 1.04, 7.38, 2.08, 1.91, 8.21, repro,
1999-05-22,-0.23, 1.53, 10.10, 2.02, 1.85, 8.05, repro,
1999-05-23,-0.69, 1.20, 11.40, 2.04, 1.86, 8.09, repro,
1999-05-24,0.18, 1.67, 3.02, 2.18, 1.97, 9.17, repro,
1999-05-25,0.53, 1.02, 11.63, 2.02, 1.84, 7.99, repro,
1999-05-26,-0.64, 0.77, 4.52, 2.01, 1.84, 7.95, repro,
1999-05-27,-0.79, 1.33, 2.68, 1.99, 1.76, 7.84, repro,
1999-05-28,-0.63, 1.13, 7.44, 1.98, 1.76, 7.84, repro,
1999-05-29,-0.09, 0.24, 11.66, 1.98, 1.75, 7.78, repro,
1999-05-30,-0.90, 0.74, 3.91, 1.98, 1.75, 7.84, repro,
1999-05-31,0.57, 2.44, -1.64, 2.02, 1.76, 7.86, repro,
1999-06-01,1.52, 1.60, 17.43, 2.11, 1.82, 8.43, repro,
1999-06-02,-0.38, -0.69, 8.96, 2.13, 1.92, 8.39, repro,
1999-06-03,1.17, 1.72, 12.59, 2.10, 1.84, 8.16, repro,
1999-06-04,-1.69, 0.23, 22.60, 2.07, 1.89, 8.37, repro,
1999-06-05,0.95, 1.00, 11.42, 1.98, 1.78, 7.88, repro,
1999-06-06,0.52, 0.39, 5.80, 2.11, 1.87, 8.26, repro,
1999-06-07,-0.60, 0.74, 12.88, 2.06, 1.87, 8.20, repro,
1999-06-08,-0.04, 0.77, 13.24, 2.00, 1.79, 7.94, repro,
1999-06-09,-0.52, -0.50, 18.03, 2.00, 1.80, 8.03, repro,
1999-06-10,0.62, 0.63, 18.24, 1.99, 1.80, 7.93, repro,
1999-06-11,-0.89, -0.61, 8.48, 2.09, 1.84, 8.37, repro,
1999-06-12,-1.29, -0.97, 11.80, 1.99, 1.77, 7.86, repro,
1999-06-13,0.01, 0.99, 10.49, 2.03, 1.81, 8.05, repro,
1999-06-14,-1.38, -0.22, 9.01, 2.23, 1.84, 8.89, repro,
1999-06-15,0.31, 0.97, 11.46, 2.08, 1.86, 8.19, repro,
1999-06-16,1.50, 1.28, 6.21, 2.01, 1.78, 7.94, repro,
1999-06-17,-0.01, 0.43, 11.53, 2.06, 1.82, 8.20, repro,
1999-06-18,-0.02, 0.67, 12.69, 1.99, 1.74, 7.80, repro,
1999-06-19,-0.37, 1.30, 12.69, 2.07, 1.80, 8.11, repro,
1999-06-20,0.18, 0.25, 21.29, 1.98, 1.75, 7.86, repro,
1999-06-21,-1.35, -1.04, 14.45, 2.05, 1.80, 8.20, repro,
1999-06-22,0.54, -0.36, 12.72, 2.13, 1.79, 8.43, repro,
1999-06-23,0.08, -0.11, 13.33, 2.01, 1.76, 7.89, repro,
1999-06-24,-0.06, 2.51, 12.19, 2.04, 1.80, 8.05, repro,
1999-06-25,-4.39, 0.67, 14.03, 2.13, 1.87, 8.30, repro,
1999-06-26,0.56, 1.02, 20.19, 2.07, 1.85, 8.12, repro,
1999-06-27,-1.16, -0.83, 32.19, 2.25, 1.85, 9.00, repro,
1999-06-28,0.56, 0.80, 14.46, 2.06, 1.81, 8.06, repro,
1999-06-29,-1.39, 2.05, 13.98, 2.36, 2.03, 9.45, repro,
1999-06-30,0.04, -1.38, 13.25, 2.05, 1.80, 8.18, repro,
1999-07-01,0.46, 0.36, 26.22, 2.29, 1.94, 9.26, repro,
1999-07-02,-0.85, -0.16, 16.42, 2.11, 1.82, 8.54, repro,
1999-07-03,-1.32, -1.13, 22.74, 2.13, 1.82, 8.58, repro,
1999-07-04,-0.14, 0.99, 14.09, 2.07, 1.79, 8.18, repro,
1999-07-05,0.93, -0.44, 20.34, 2.09, 1.86, 8.33, repro,
1999-07-06,1.27, -0.71, 14.65, 2.09, 1.87, 8.39, repro,
1999-07-07,-0.50, 1.32, 2.34, 3.09, 2.97, 11.77, repro,
1999-07-08,-3.25, 78.53, -14.47, 8.75, 6.62, 29.39, repro,
1999-07-09,0.06, 1.33, 16.99, 2.09, 1.81, 8.19, repro,
1999-07-10,0.09, 1.61, 16.75, 2.12, 1.82, 8.31, repro,
1999-07-11,-0.69, 0.76, 15.16, 2.24, 1.93, 8.91, repro,
1999-07-12,-1.29, 1.32, 18.19, 2.02, 1.78, 8.01, repro,
1999-07-13,-0.58, 2.52, 13.11, 2.10, 1.86, 8.53, repro,
1999-07-14,-0.79, -0.81, 11.68, 2.17, 1.97, 8.74, repro,
1999-07-15,-3.04, -0.43, 26.94, 2.29, 2.08, 9.01, repro,
1999-07-16,-0.99, -2.48, 12.41, 2.20, 1.97, 9.01, repro,
1999-07-17,-0.55, -0.72, 1.50, 2.06, 1.80, 7.99, repro,
1999-07-18,0.65, -0.15, 12.40, 2.12, 1.82, 8.46, repro,
1999-07-19,-0.20, -0.88, 3.73, 2.17, 1.81, 8.59, repro,
1999-07-20,-0.44, -0.30, 14.88, 2.24, 1.93, 8.87, repro,
1999-07-21,-0.91, 1.16, 21.70, 2.09, 1.91, 8.23, repro,
1999-07-22,0.60, -1.39, 10.57, 2.39, 1.94, 9.44, repro,
1999-07-23,0.22, 1.10, 17.26, 2.24, 1.96, 8.95, repro,
1999-07-24,1.72, -2.05, 14.09, 2.22, 1.97, 8.96, repro,
1999-07-25,-4.75, 0.60, 33.26, 2.23, 1.92, 8.84, repro,
1999-07-26,-0.98, -0.14, 13.67, 2.27, 1.97, 8.89, repro,
1999-07-27,0.41, 0.59, 9.43, 2.15, 1.86, 8.63, repro,
1999-07-28,1.60, 0.55, 10.69, 2.06, 1.84, 8.29, repro,
1999-08-12,2.23, 3.15, 8.30, 3.65, 2.94, 13.95, repro,
1999-08-13,-0.78, 1.31, 6.83, 1.98, 1.73, 7.79, repro,
1999-08-14,0.99, 0.27, 10.21, 2.00, 1.76, 7.95, repro,
1999-08-15,-0.60, 0.65, 17.05, 2.17, 1.84, 8.45, repro,
1999-08-16,0.60, 1.14, 17.38, 1.99, 1.75, 7.82, repro,
1999-08-17,0.23, 0.76, 16.52, 2.02, 1.81, 7.96, repro,
1999-08-18,-0.96, 0.52, 4.19, 2.01, 1.74, 7.91, repro,
1999-08-19,0.79, 2.74, 14.14, 2.00, 1.76, 7.95, repro,
1999-08-20,-0.25, -2.78, 20.00, 2.06, 1.80, 8.08, repro,
1999-08-21,-0.08, 2.65, 13.43, 1.98, 1.74, 7.79, repro,
1999-08-22,2.03, 2.85, 8.33, 2.26, 2.40, 9.61, repro,
1999-08-23,0.63, 0.83, 16.06, 2.15, 1.79, 8.25, repro,
1999-08-24,-0.78, 2.52, 9.73, 2.08, 1.82, 8.16, repro,
1999-08-25,0.56, 1.40, 17.93, 2.11, 1.82, 8.15, repro,
1999-08-26,1.00, 2.43, 19.72, 2.19, 1.79, 8.63, repro,
1999-08-27,1.80, -1.68, 17.20, 2.09, 1.87, 8.16, repro,
1999-08-28,0.11, 0.77, 30.29, 2.12, 1.94, 8.48, repro,
1999-08-29,1.55, 2.05, 15.39, 2.16, 1.97, 9.87, repro,
1999-08-30,-0.80, 1.79, 16.03, 2.17, 1.95, 8.51, repro,
1999-08-31,2.66, 3.38, 19.40, 2.18, 1.98, 8.61, repro,
1999-09-01,2.02, -0.20, 12.38, 2.32, 1.99, 9.03, repro,
1999-09-02,0.36, 0.02, 11.52, 2.08, 1.85, 8.07, repro,
1999-09-03,-1.63, 0.69, 19.35, 2.22, 1.94, 8.76, repro,
1999-09-04,1.61, 1.47, 15.84, 2.19, 1.87, 8.44, repro,
1999-09-05,0.40, 2.80, 12.10, 2.04, 1.81, 7.99, repro,
1999-09-06,0.46, 2.23, 23.16, 2.17, 1.91, 8.51, repro,
1999-09-07,0.64, 1.98, 16.47, 2.47, 1.93, 9.68, repro,
1999-09-08,0.63, 2.44, 15.32, 2.39, 1.95, 9.39, repro,
1999-09-09,0.08, 1.63, 8.30, 2.17, 1.82, 8.29, repro,
1999-09-10,0.90, 1.76, 15.40, 2.14, 1.89, 8.25, repro,
1999-09-11,0.93, 2.73, 10.03, 2.29, 1.97, 8.92, repro,
1999-09-12,-0.79, 1.40, 14.94, 2.16, 1.84, 8.35, repro,
1999-09-13,2.46, 0.86, 21.15, 2.08, 1.76, 8.05, repro,
1999-09-14,0.31, 1.92, 12.85, 2.10, 1.90, 8.23, repro,
1999-09-15,-0.64, 2.39, 21.75, 2.16, 1.80, 8.28, repro,
1999-09-16,-2.66, 2.34, 13.15, 2.11, 1.85, 8.14, repro,
1999-09-17,0.01, 1.44, 18.61, 2.20, 1.88, 8.50, repro,
1999-09-18,0.13, -0.43, 17.90, 2.20, 1.91, 8.65, repro,
1999-09-19,-0.22, 1.18, 4.45, 2.37, 2.35, 9.56, repro,
1999-09-20,-0.14, 2.51, 17.94, 2.25, 1.95, 8.65, repro,
1999-09-21,1.16, 2.49, 5.74, 2.24, 1.99, 8.59, repro,
1999-09-22,0.37, 0.63, 18.51, 2.21, 1.95, 8.72, repro,
1999-09-23,1.89, 1.49, 6.01, 2.26, 1.96, 8.64, repro,
1999-09-24,1.52, 3.38, 16.24, 2.32, 2.04, 8.99, repro,
1999-09-25,0.94, 4.67, 21.35, 2.10, 1.88, 8.25, repro,
1999-09-26,0.30, 1.80, 17.46, 2.44, 2.31, 9.80, repro,
1999-09-27,1.78, 2.19, 16.90, 2.28, 2.04, 9.18, repro,
1999-09-28,1.02, 2.10, 14.27, 2.36, 2.15, 9.12, repro,
1999-09-29,2.49, 3.41, 11.74, 2.58, 2.44, 10.04, repro,
1999-09-30,0.65, 2.88, 14.69, 2.75, 2.48, 10.68, repro,
1999-10-01,0.88, 3.07, 18.80, 2.80, 2.61, 11.00, repro,
1999-10-02,1.71, 2.27, 18.95, 2.22, 2.04, 8.81, repro,
1999-10-03,0.62, 2.00, 13.15, 2.54, 2.23, 9.45, repro,
1999-10-04,0.86, 2.61, 11.20, 2.28, 2.13, 8.81, repro,
1999-10-05,0.07, 1.52, 21.54, 2.28, 2.03, 8.76, repro,
1999-10-06,1.50, 1.39, 25.70, 2.10, 1.91, 8.38, repro,
1999-10-07,-1.37, 2.71, 16.33, 2.23, 1.90, 8.68, repro,
1999-10-08,0.60, 1.55, 15.11, 3.70, 3.83, 16.74, repro,
1999-10-09,0.99, 2.17, 15.02, 2.23, 1.98, 8.78, repro,
1999-10-10,-0.51, 2.84, 18.91, 2.21, 1.97, 8.63, repro,
1999-10-11,-0.72, 2.32, 12.70, 2.27, 2.06, 8.73, repro,
1999-10-12,-0.55, 3.07, 10.50, 2.34, 2.10, 8.80, repro,
1999-10-13,-0.55, 1.57, 9.19, 2.48, 2.18, 9.98, repro,
1999-10-14,-0.63, 3.03, 13.09, 2.18, 1.99, 8.61, repro,
1999-10-15,0.40, 3.21, 17.53, 2.44, 2.15, 9.71, repro,
1999-10-16,0.49, 4.58, 13.27, 2.13, 1.92, 8.50, repro,
1999-10-17,2.15, 5.67, 4.92, 2.29, 1.99, 9.04, repro,
1999-10-18,1.04, 5.36, 14.43, 2.42, 2.09, 9.27, repro,
1999-10-19,2.57, 5.70, 7.93, 2.38, 2.06, 9.19, repro,
1999-10-20,1.95, 5.67, 8.58, 2.09, 1.94, 8.40, repro,
1999-10-21,2.95, 4.92, 6.72, 2.22, 2.08, 9.38, repro,
1999-10-22,2.59, 4.61, 7.65, 2.34, 2.25, 9.65, repro,
1999-10-23,3.13, 6.70, 3.11, 2.08, 1.90, 8.23, repro,
1999-10-24,2.07, 6.15, 8.57, 2.21, 2.07, 9.28, repro,
1999-10-25,1.57, 5.64, 5.38, 2.09, 1.95, 8.31, repro,
1999-10-26,4.04, 5.49, 11.13, 2.02, 1.84, 8.20, repro,
1999-10-27,2.11, 5.50, 7.67, 2.25, 2.01, 8.80, repro,
1999-10-28,3.07, 5.62, 12.51, 2.17, 1.95, 8.41, repro,
1999-10-29,4.21, 6.20, 17.57, 2.21, 1.98, 8.55, repro,
1999-10-30,3.12, 6.34, 6.40, 2.07, 1.86, 8.25, repro,
1999-10-31,3.05, 5.54, 10.17, 2.42, 2.03, 9.52, repro,
1999-11-01,3.44, 5.29, 1.44, 2.40, 2.07, 9.40, repro,
1999-11-02,4.20, 5.57, 10.71, 2.26, 1.94, 8.67, repro,
1999-11-03,3.62, 5.69, 9.53, 2.51, 2.09, 9.85, repro,
1999-11-04,3.01, 5.84, 12.01, 2.18, 1.89, 8.54, repro,
1999-11-05,2.31, 4.76, 8.87, 2.14, 1.86, 8.45, repro,
1999-11-06,2.55, 6.03, 10.50, 2.18, 1.89, 8.47, repro,
1999-11-07,2.37, 5.61, 15.65, 2.19, 1.90, 8.48, repro,
1999-11-08,2.95, 4.53, 14.27, 2.22, 1.90, 8.70, repro,
1999-11-09,2.80, 5.97, 20.97, 2.10, 1.85, 8.25, repro,
1999-11-10,1.56, 5.41, 13.72, 2.11, 1.82, 8.41, repro,
1999-11-11,3.24, 5.45, 12.14, 2.08, 1.86, 8.31, repro,
1999-11-12,2.88, 5.65, 12.27, 2.12, 1.90, 8.29, repro,
1999-11-13,3.03, 4.52, 16.54, 2.19, 1.89, 8.46, repro,
1999-11-14,3.73, 5.72, 17.19, 2.10, 1.86, 8.37, repro,
1999-11-15,2.61, 6.27, 17.92, 2.14, 1.88, 8.59, repro,
1999-11-16,3.48, 5.97, 17.24, 2.10, 1.90, 8.31, repro,
1999-11-17,-0.01, 4.27, 21.78, 2.08, 1.87, 8.32, repro,
1999-11-18,2.51, 4.91, 20.36, 2.15, 1.90, 8.52, repro,
1999-11-19,3.42, 5.14, 12.60, 2.18, 1.99, 8.62, repro,
1999-11-20,2.14, 5.06, 14.07, 2.14, 1.95, 8.34, repro,
1999-11-21,2.52, 6.81, 20.55, 2.48, 2.16, 9.99, repro,
1999-11-22,2.89, 4.52, 13.51, 2.22, 1.97, 8.56, repro,
1999-11-23,3.46, 5.44, 6.41, 2.49, 2.35, 10.18, repro,
1999-11-24,2.54, 6.78, 2.13, 2.58, 2.52, 10.88, repro,
1999-11-25,3.91, 5.71, 14.20, 2.25, 2.04, 8.95, repro,
1999-11-26,1.97, 5.55, 10.61, 2.22, 2.25, 9.10, repro,
1999-11-27,1.98, 6.19, 15.90, 2.06, 1.94, 8.35, repro,
1999-11-28,2.36, 5.78, 2.79, 2.04, 1.88, 8.12, repro,
1999-11-29,3.21, 6.75, 4.23, 2.09, 1.94, 8.51, repro,
1999-11-30,3.24, 6.65, 3.25, 2.21, 1.95, 8.81, repro,
1999-12-01,2.58, 6.05, 21.95, 2.29, 2.19, 9.35, repro,
1999-12-02,3.27, 6.49, 11.75, 2.02, 1.89, 8.23, repro,
1999-12-03,1.23, 5.77, 8.47, 2.42, 2.33, 10.08, repro,
1999-12-04,1.63, 6.21, 2.62, 2.35, 2.13, 9.05, repro,
1999-12-05,1.37, 6.49, 5.46, 2.11, 2.09, 8.63, repro,
1999-12-06,1.12, 6.12, 6.23, 2.49, 2.42, 10.84, repro,
1999-12-07,2.80, 6.49, 9.20, 2.34, 2.09, 9.53, repro,
1999-12-08,4.28, 6.97, 8.00, 2.67, 2.42, 10.42, repro,
1999-12-09,3.02, 7.22, 8.98, 2.28, 2.19, 9.25, repro,
1999-12-10,3.10, 5.46, 12.96, 2.05, 1.91, 8.31, repro,
1999-12-11,0.47, 4.39, 3.35, 2.20, 2.17, 9.14, repro,
1999-12-12,1.82, 5.09, 12.77, 2.29, 2.20, 9.41, repro,
1999-12-13,3.21, 5.77, 8.67, 2.35, 2.40, 9.58, repro,
1999-12-14,1.90, 5.16, 7.55, 2.34, 2.08, 9.19, repro,
1999-12-15,1.81, 5.28, 6.74, 2.36, 2.12, 9.89, repro,
1999-12-16,2.45, 4.37, 10.77, 2.26, 2.04, 9.14, repro,
1999-12-17,2.33, 5.40, 4.30, 2.48, 2.29, 10.09, repro,
1999-12-18,-0.19, 5.32, 4.00, 2.49, 2.16, 9.70, repro,
1999-12-19,3.68, 5.16, 7.61, 2.16, 2.00, 8.80, repro,
1999-12-20,2.37, 5.88, 11.02, 2.20, 2.01, 8.94, repro,
1999-12-21,2.82, 5.89, 11.18, 2.31, 1.98, 9.24, repro,
1999-12-22,1.60, 4.83, -4.22, 2.30, 2.04, 9.36, repro,
1999-12-23,2.79, 5.62, -0.15, 2.25, 2.25, 9.05, repro,
1999-12-24,2.36, 5.66, -0.89, 2.47, 2.45, 10.75, repro,
1999-12-25,3.54, 5.94, -3.96, 2.10, 1.97, 8.51, repro,
1999-12-26,3.20, 6.06, -0.31, 2.28, 2.25, 9.81, repro,
1999-12-27,1.00, 5.62, -10.24, 2.43, 2.21, 10.39, repro,
1999-12-28,2.45, 5.68, 1.52, 2.30, 1.95, 9.63, repro,
1999-12-29,2.68, 5.41, 2.13, 2.11, 1.98, 8.73, repro,
1999-12-30,2.59, 5.79, 7.26, 2.14, 2.05, 8.88, repro,
1999-12-31,2.26, 5.26, 9.35, 2.26, 2.01, 9.50, repro,
2000-01-01,3.46, 5.59, 14.04, 2.28, 2.03, 9.34, repro,
2000-01-02,3.31, 7.42, 1.75, 1.99, 1.84, 8.02, repro,
2000-01-03,3.26, 5.25, 3.93, 2.12, 1.85, 8.73, repro,
2000-01-04,2.24, 5.88, -4.59, 2.20, 1.92, 9.10, repro,
2000-01-05,3.41, 5.22, 5.51, 2.00, 1.78, 7.98, repro,
2000-01-06,1.93, 6.48, -5.58, 2.06, 1.82, 8.31, repro,
2000-01-07,3.55, 6.14, -2.73, 2.04, 1.89, 8.29, repro,
2000-01-08,2.16, 5.48, 1.66, 1.94, 1.76, 7.77, repro,
2000-01-09,3.05, 6.34, 8.13, 1.94, 1.76, 7.76, repro,
2000-01-10,1.90, 5.43, 6.60, 2.05, 1.83, 8.39, repro,
2000-01-11,3.11, 6.10, 1.28, 2.00, 1.78, 8.14, repro,
2000-01-12,2.21, 7.05, 4.70, 2.22, 1.99, 9.63, repro,
2000-01-13,3.52, 5.98, -0.76, 2.26, 1.96, 9.60, repro,
2000-01-14,2.77, 5.51, -1.96, 2.23, 1.98, 9.46, repro,
2000-01-15,3.09, 5.47, -3.11, 2.26, 1.96, 9.57, repro,
2000-01-16,2.91, 5.33, -0.49, 2.03, 1.79, 8.29, repro,
2000-01-17,2.18, 5.12, 1.63, 2.10, 1.87, 8.73, repro,
2000-01-18,2.02, 5.30, 3.53, 2.06, 1.83, 8.38, repro,
2000-01-19,2.15, 5.15, 4.65, 2.14, 1.85, 8.79, repro,
2000-01-20,3.96, 6.26, 7.24, 2.14, 1.85, 8.93, repro,
2000-01-21,1.57, 6.27, 9.73, 2.00, 1.86, 8.19, repro,
2000-01-22,5.28, 3.76, 13.65, 2.07, 1.91, 8.53, repro,
2000-01-23,3.44, 6.22, 11.67, 2.10, 1.91, 8.78, repro,
2000-01-24,3.95, 6.00, 10.44, 2.06, 1.84, 8.37, repro,
2000-01-25,3.99, 6.91, 4.22, 2.07, 1.83, 8.38, repro,
2000-01-26,2.93, 3.25, 2.24, 2.11, 1.81, 8.61, repro,
2000-01-27,4.95, 5.56, 4.37, 2.27, 2.03, 9.18, repro,
2000-01-28,3.41, 4.78, 9.74, 2.10, 1.83, 8.57, repro,
2000-01-29,3.29, 5.64, 2.10, 2.17, 1.90, 9.04, repro,
2000-01-30,3.61, 6.50, -0.02, 2.13, 1.84, 8.86, repro,
2000-01-31,3.06, 7.03, -0.35, 2.09, 1.79, 8.50, repro,
2000-02-01,3.52, 5.31, -8.76, 2.28, 1.93, 9.53, repro,
2000-02-02,3.43, 5.50, -1.64, 2.22, 1.86, 9.19, repro,
2000-02-03,3.06, 5.39, 0.30, 2.28, 1.93, 9.54, repro,
2000-02-04,3.92, 5.80, 12.07, 2.08, 1.97, 9.03, repro,
2000-02-05,3.08, 4.25, 8.69, 2.36, 2.16, 9.85, repro,
2000-02-06,2.74, 5.98, 11.80, 1.99, 1.83, 8.14, repro,
2000-02-07,3.03, 5.90, 0.43, 2.27, 1.94, 9.09, repro,
2000-02-08,4.35, 7.33, 0.23, 2.17, 2.01, 9.07, repro,
2000-02-09,4.11, 6.81, 3.03, 2.08, 1.89, 8.58, repro,
2000-02-10,2.89, 7.19, 0.94, 2.02, 1.83, 8.09, repro,
2000-02-11,3.39, 7.26, 2.70, 2.06, 2.00, 8.62, repro,
2000-02-12,2.87, 5.46, -8.12, 2.00, 1.83, 8.15, repro,
2000-02-13,2.58, 7.06, 8.23, 1.94, 1.77, 7.89, repro,
2000-02-14,2.34, 6.67, 9.61, 1.98, 1.80, 8.06, repro,
2000-02-15,3.94, 6.46, 4.64, 2.03, 1.77, 8.16, repro,
2000-02-16,2.78, 4.93, 6.48, 1.99, 1.79, 8.05, repro,
2000-02-17,6.15, 7.44, -8.39, 1.99, 1.83, 8.08, repro,
2000-02-18,2.50, 6.24, -1.68, 1.92, 1.76, 7.82, repro,
2000-02-19,3.20, 5.60, 2.52, 2.00, 1.77, 8.03, repro,
2000-02-20,3.21, 6.60, 0.49, 2.04, 1.81, 8.24, repro,
2000-02-21,1.65, 5.30, 7.13, 2.14, 1.85, 8.50, repro,
2000-02-22,4.55, 5.18, 1.70, 1.96, 1.76, 7.89, repro,
2000-02-23,2.75, 6.05, 0.57, 2.02, 1.85, 8.27, repro,
2000-02-24,2.50, 4.54, 0.52, 1.98, 1.75, 7.88, repro,
2000-02-25,3.37, 5.10, -0.43, 2.00, 1.83, 8.02, repro,
2000-02-26,3.20, 6.25, 6.36, 2.17, 2.01, 8.64, repro,
2000-02-27,3.66, 5.15, 1.05, 1.93, 1.74, 7.73, repro,
2000-02-28,2.91, 7.89, -9.27, 2.05, 1.81, 8.29, repro,
2000-02-29,1.93, 4.64, 4.27, 2.23, 2.02, 9.17, repro,
2000-03-01,3.43, 2.35, -2.43, 2.53, 2.53, 11.14, repro,
2000-03-02,1.66, 5.50, 0.74, 2.35, 2.34, 10.10, repro,
2000-03-03,4.86, 5.23, 9.14, 2.23, 1.98, 9.23, repro,
2000-03-04,3.67, 6.52, 5.50, 2.20, 2.01, 8.83, repro,
2000-03-05,1.23, 5.74, 10.41, 2.05, 1.86, 8.31, repro,
2000-03-06,0.10, 4.13, 12.08, 2.18, 1.91, 8.92, repro,
2000-03-07,3.90, 6.06, 4.62, 2.28, 2.06, 9.11, repro,
2000-03-08,4.57, 6.41, 6.10, 2.11, 1.89, 8.75, repro,
2000-03-09,2.60, 5.66, -5.27, 2.22, 1.94, 9.09, repro,
2000-03-10,4.82, 6.96, -8.91, 2.31, 2.05, 9.21, repro,
2000-03-11,3.01, 6.56, -4.33, 2.17, 1.92, 8.78, repro,
2000-03-12,3.83, 6.91, 1.76, 2.87, 2.69, 12.18, repro,
2000-03-13,2.65, 5.04, 4.75, 2.65, 2.42, 11.27, repro,
2000-03-14,2.69, 5.32, 2.90, 2.24, 2.07, 9.39, repro,
2000-03-15,2.48, 4.95, 8.36, 2.18, 1.91, 8.64, repro,
2000-03-16,4.05, 4.97, 8.51, 2.22, 1.98, 9.13, repro,
2000-03-17,3.61, 6.48, 1.14, 2.18, 1.97, 9.07, repro,
2000-03-18,4.09, 5.05, -1.94, 2.22, 1.94, 8.69, repro,
2000-03-19,4.00, 5.60, 1.97, 2.10, 1.84, 8.34, repro,
2000-03-20,2.49, 2.57, 4.54, 2.28, 1.93, 8.94, repro,
2000-03-21,2.68, 4.66, 3.76, 2.25, 1.86, 8.76, repro,
2000-03-22,3.28, 6.23, -2.39, 2.21, 2.01, 8.99, repro,
2000-03-23,3.43, 5.37, 3.33, 2.28, 2.15, 9.25, repro,
2000-03-24,1.78, 5.25, -5.29, 2.24, 2.11, 9.09, repro,
2000-03-25,2.68, 5.16, 6.73, 2.07, 1.78, 8.15, repro,
2000-03-26,2.84, 6.49, 3.31, 2.23, 1.87, 8.78, repro,
2000-03-27,3.99, 6.51, 3.41, 2.26, 1.85, 9.00, repro,
2000-03-28,2.65, 5.82, 6.84, 2.11, 1.76, 8.25, repro,
2000-03-29,3.27, 5.69, 7.10, 2.14, 1.78, 8.46, repro,